�N����,����,�~����,�C��,���x,�C��,����,���ϕ���,�ő�u�ԕ���,�ő厞����,���˗�,�I�_���x,�n�����x,�ő啗���N��,DTYPE
"18/06/14","00:10",0.0,14.7,88.8,1004.3,305.4,1.0,1.3,340.6,0.00,12.9,19.6,"00:04:24",1
"18/06/14","00:20",0.0,14.8,89.7,1004.1,332.1,0.8,1.4,325.0,0.00,13.2,19.5,"00:15:52",1
"18/06/14","00:30",0.0,14.6,90.4,1004.3,323.1,1.5,2.0,321.7,0.00,13.1,19.4,"00:22:00",1
"18/06/14","00:40",0.0,14.5,90.8,1004.1,323.5,1.3,1.8,317.9,0.00,13.1,19.3,"00:37:04",1
"18/06/14","00:50",0.0,14.2,90.6,1004.3,308.7,1.1,1.7,333.2,0.00,12.7,19.4,"00:40:40",1
"18/06/14","01:00",0.0,13.9,91.8,1004.3,295.2,1.0,1.3,317.2,0.00,12.6,19.2,"00:52:32",1
"18/06/14","01:10",0.0,13.8,92.2,1004.5,316.3,1.2,1.8,316.9,0.00,12.6,19.3,"01:08:40",1
"18/06/14","01:20",0.0,13.9,93.1,1004.3,311.8,1.3,2.2,333.7,0.00,12.8,19.2,"01:12:32",1
"18/06/14","01:30",0.0,13.9,93.3,1003.6,313.2,1.1,2.0,321.0,0.00,12.9,19.2,"01:24:40",1
"18/06/14","01:40",0.0,13.8,93.0,1004.1,288.2,0.7,1.3,317.9,0.00,12.7,19.1,"01:32:32",1
"18/06/14","01:50",0.0,13.7,93.9,1004.3,246.4,0.5,1.3,269.0,0.00,12.8,18.8,"01:49:36",1
"18/06/14","02:00",0.0,13.7,94.0,1003.8,312.5,1.2,1.9,317.5,0.00,12.8,19.1,"01:57:04",1
"18/06/14","02:10",0.0,13.7,93.6,1003.6,315.2,1.3,2.2,338.3,0.00,12.7,18.8,"02:04:40",1
"18/06/14","02:20",0.0,13.4,94.2,1003.6,284.1,0.8,1.4,317.9,0.00,12.5,18.9,"02:14:32",1
"18/06/14","02:30",0.0,13.3,94.8,1003.6,303.4,1.0,1.9,318.1,0.00,12.5,18.8,"02:24:24",1
"18/06/14","02:40",0.0,13.5,95.1,1003.8,322.1,1.2,1.9,329.4,0.00,12.8,18.7,"02:39:20",1
"18/06/14","02:50",0.0,13.5,94.7,1003.8,328.3,1.5,2.1,336.3,0.00,12.7,18.4,"02:41:12",1
"18/06/14","03:00",0.0,13.1,94.5,1004.1,285.1,0.7,1.1,312.3,0.00,12.3,18.6,"02:56:00",1
"18/06/14","03:10",0.0,13.2,96.0,1004.1,308.4,1.0,2.0,347.2,0.00,12.6,18.6,"03:09:54",1
"18/06/14","03:20",0.0,13.2,95.5,1004.1,311.7,1.2,1.9,324.2,0.00,12.5,18.6,"03:10:24",1
"18/06/14","03:30",0.0,13.2,95.9,1004.1,312.2,1.1,1.9,325.3,0.00,12.6,18.6,"03:26:32",1
"18/06/14","03:40",0.0,13.3,95.8,1003.8,310.9,1.2,2.0,321.1,0.00,12.7,18.6,"03:30:48",1
"18/06/14","03:50",0.0,13.1,95.4,1003.8,303.9,1.2,1.9,321.2,0.00,12.4,18.5,"03:45:36",1
"18/06/14","04:00",0.0,13.1,96.2,1004.1,299.4,1.1,1.4,323.6,0.00,12.5,18.4,"03:56:08",1
"18/06/14","04:10",0.0,12.9,95.9,1003.8,294.9,1.1,1.3,300.8,0.00,12.3,18.3,"04:04:32",1
"18/06/14","04:20",0.0,12.9,96.3,1004.1,291.7,0.8,1.7,324.3,0.00,12.4,18.3,"04:10:24",1
"18/06/14","04:30",0.0,12.9,96.2,1003.6,290.6,1.1,1.7,317.8,0.00,12.3,18.3,"04:22:10",1
"18/06/14","04:40",0.0,12.9,96.4,1004.1,292.2,1.1,1.7,301.8,0.00,12.4,18.3,"04:31:20",1
"18/06/14","04:50",0.0,13.2,96.6,1004.1,318.3,1.3,2.4,339.7,0.00,12.7,18.4,"04:46:42",1
"18/06/14","05:00",0.0,13.3,96.5,1003.8,299.5,1.0,1.8,313.2,0.00,12.8,18.3,"04:53:12",1
"18/06/14","05:10",0.0,13.3,96.7,1004.1,288.5,0.8,1.1,271.9,0.00,12.8,18.3,"05:05:44",1
"18/06/14","05:20",0.0,13.1,96.5,1004.1,289.3,0.6,1.0,310.2,0.00,12.6,18.1,"05:10:08",1
"18/06/14","05:30",0.0,13.0,96.4,1004.1,280.3,0.5,1.3,303.0,0.00,12.5,18.0,"05:29:52",1
"18/06/14","05:40",0.0,13.2,97.1,1004.3,315.4,1.3,1.8,321.3,0.00,12.8,17.9,"05:33:20",1
"18/06/14","05:50",0.0,13.6,97.0,1004.1,283.8,1.0,1.3,322.0,0.00,13.2,18.1,"05:42:48",1
"18/06/14","06:00",0.0,14.1,97.1,1004.3,290.3,0.8,1.2,260.8,0.01,13.7,18.0,"05:52:08",1
"18/06/14","06:10",0.0,14.8,96.2,1003.8,265.2,0.7,1.2,247.0,0.02,14.2,18.0,"06:05:20",1
"18/06/14","06:20",0.0,15.4,94.9,1004.3,239.8,0.5,1.2,245.8,0.03,14.6,17.9,"06:17:44",1
"18/06/14","06:30",0.0,16.4,93.6,1004.3,290.2,0.3,0.9,338.1,0.04,15.4,18.0,"06:23:52",1
"18/06/14","06:40",0.0,17.5,93.2,1004.8,335.7,0.6,2.1,344.1,0.06,16.4,18.1,"06:37:20",1
"18/06/14","06:50",0.0,17.6,91.6,1004.8,345.6,1.0,3.2,30.6,0.09,16.3,18.3,"06:49:12",1
"18/06/14","07:00",0.0,18.7,84.1,1005.0,298.2,0.7,2.9,326.1,0.11,16.0,18.2,"06:50:16",1
"18/06/14","07:10",0.0,19.1,81.5,1005.0,297.2,0.6,1.4,326.1,0.14,15.9,18.2,"07:02:56",1
"18/06/14","07:20",0.0,19.2,74.7,1005.0,318.3,1.3,4.1,344.2,0.16,14.6,18.5,"07:16:32",1
"18/06/14","07:30",0.0,19.9,74.6,1005.5,338.7,1.7,3.4,342.6,0.19,15.3,18.4,"07:26:08",1
"18/06/14","07:40",0.0,20.4,72.1,1005.2,329.2,1.3,3.3,348.1,0.21,15.2,18.6,"07:31:12",1
"18/06/14","07:50",0.0,20.7,70.7,1005.2,330.0,1.2,2.7,343.6,0.24,15.2,18.7,"07:49:44",1
"18/06/14","08:00",0.0,21.1,70.6,1005.0,328.1,1.3,4.0,343.1,0.28,15.6,18.8,"07:53:36",1
"18/06/14","08:10",0.0,20.8,68.8,1004.8,324.8,1.3,3.2,317.1,0.31,14.9,19.1,"08:00:08",1
"18/06/14","08:20",0.0,21.8,67.1,1005.0,335.9,0.8,2.9,316.9,0.32,15.5,19.1,"08:11:12",1
"18/06/14","08:30",0.0,20.8,66.9,1004.8,314.3,1.5,3.2,352.7,0.32,14.5,19.2,"08:21:20",1
"18/06/14","08:40",0.0,21.7,64.9,1004.5,46.4,0.7,1.9,21.7,0.35,14.9,19.4,"08:36:08",1
"18/06/14","08:50",0.0,22.5,65.4,1004.1,327.6,0.8,2.2,348.8,0.38,15.7,19.5,"08:44:56",1
"18/06/14","09:00",0.0,22.6,62.9,1003.8,4.5,1.3,2.9,346.2,0.40,15.2,19.6,"08:53:04",1
"18/06/14","09:10",0.0,21.9,62.5,1003.6,340.2,1.1,3.1,232.6,0.41,14.5,19.8,"09:09:20",1
"18/06/14","09:20",0.0,22.9,64.4,1003.6,339.2,0.8,2.8,350.4,0.41,15.9,20.2,"09:14:00",1
"18/06/14","09:30",0.0,22.7,61.1,1003.1,31.0,1.3,3.5,352.5,0.45,14.9,20.4,"09:21:12",1
"18/06/14","09:40",0.0,22.9,61.6,1002.9,332.7,2.2,3.7,343.6,0.48,15.2,20.6,"09:31:28",1
"18/06/14","09:50",0.0,23.5,62.9,1003.4,335.3,2.3,4.2,327.6,0.50,16.1,20.6,"09:41:52",1
"18/06/14","10:00",0.0,23.5,61.4,1003.1,318.1,1.5,3.6,343.2,0.49,15.7,21.0,"09:55:12",1
"18/06/14","10:10",0.0,23.6,61.3,1003.1,315.2,1.6,3.5,346.4,0.37,15.8,20.8,"10:00:48",1
"18/06/14","10:20",0.0,23.6,62.4,1002.6,321.8,1.7,3.5,346.3,0.40,16.0,21.3,"10:15:28",1
"18/06/14","10:30",0.0,24.0,60.8,1002.6,348.3,1.7,4.2,357.3,0.42,16.0,21.5,"10:24:00",1
"18/06/14","10:40",0.0,23.4,59.3,1002.4,328.8,1.7,3.6,343.8,0.32,15.1,21.6,"10:31:04",1
"18/06/14","10:50",0.0,23.8,59.9,1002.6,338.2,2.2,4.3,337.9,0.35,15.6,21.8,"10:43:12",1
"18/06/14","11:00",0.0,23.7,62.7,1002.6,344.1,2.1,4.1,344.8,0.38,16.2,21.9,"10:51:28",1
"18/06/14","11:10",0.0,24.5,61.1,1002.4,341.2,2.2,5.1,327.5,0.60,16.6,22.1,"11:09:00",1
"18/06/14","11:20",0.0,24.3,60.8,1002.2,337.1,2.8,5.6,332.4,0.57,16.3,22.3,"11:19:12",1
"18/06/14","11:30",0.0,24.4,60.6,1002.2,341.6,2.8,5.8,351.7,0.58,16.3,22.4,"11:25:20",1
"18/06/14","11:40",0.0,25.0,58.8,1001.9,335.8,2.3,5.4,314.9,0.60,16.4,22.4,"11:33:44",1
"18/06/14","11:50",0.0,25.3,60.2,1001.7,334.8,2.0,3.9,338.1,0.63,17.1,22.5,"11:43:12",1
"18/06/14","12:00",0.0,24.6,56.4,1001.5,313.8,1.2,3.7,344.2,0.53,15.4,23.0,"11:52:16",1
"18/06/14","12:10",0.0,25.2,55.4,1001.5,250.3,0.7,2.4,333.4,0.51,15.7,23.0,"12:09:36",1
"18/06/14","12:20",0.0,25.5,61.5,1001.7,206.1,1.2,3.3,214.8,0.57,17.6,23.3,"12:14:56",1
"18/06/14","12:30",0.0,26.0,57.1,1001.9,204.9,1.3,3.1,226.4,0.62,16.9,23.4,"12:23:52",1
"18/06/14","12:40",0.0,25.8,55.1,1001.7,176.0,1.3,3.5,187.3,0.57,16.1,23.5,"12:31:12",1
"18/06/14","12:50",0.0,26.1,53.8,1002.2,17.6,0.8,2.5,330.7,0.44,16.1,23.7,"12:49:36",1
"18/06/14","13:00",0.0,26.4,55.6,1001.9,317.1,1.2,2.7,345.9,0.44,16.8,23.9,"12:50:56",1
"18/06/14","13:10",0.0,25.4,55.8,1001.5,312.5,1.5,3.7,339.2,0.37,16.0,23.9,"13:00:08",1
"18/06/14","13:20",0.0,25.1,56.3,1001.5,239.2,1.8,5.0,219.3,0.41,15.8,23.8,"13:14:24",1
"18/06/14","13:30",0.0,25.5,58.5,1001.2,243.5,1.5,3.9,228.9,0.34,16.8,23.9,"13:27:04",1
"18/06/14","13:40",0.0,25.1,57.4,1001.0,252.5,1.5,3.4,298.8,0.27,16.1,23.8,"13:39:28",1
"18/06/14","13:50",0.0,25.5,56.4,1001.0,269.5,1.3,3.3,234.5,0.37,16.2,23.7,"13:40:32",1
"18/06/14","14:00",0.0,25.5,58.4,1000.8,284.7,1.5,3.5,334.8,0.31,16.8,23.7,"13:59:52",1
"18/06/14","14:10",0.0,25.2,57.8,1000.8,293.6,1.5,2.8,306.4,0.35,16.3,23.7,"14:02:16",1
"18/06/14","14:20",0.0,25.5,57.9,1000.5,289.9,1.6,3.3,339.3,0.30,16.6,23.7,"14:13:20",1
"18/06/14","14:30",0.0,25.9,57.9,1000.5,287.8,1.3,4.1,331.5,0.29,17.0,23.8,"14:29:04",1
"18/06/14","14:40",0.0,25.1,58.1,1000.5,294.8,1.2,2.8,331.9,0.26,16.3,23.8,"14:32:48",1
"18/06/14","14:50",0.0,25.7,59.2,1000.3,324.0,1.8,3.9,341.3,0.30,17.2,23.8,"14:42:48",1
"18/06/14","15:00",0.0,25.1,58.8,1000.8,314.2,1.7,3.4,328.5,0.21,16.5,23.8,"14:57:28",1
"18/06/14","15:10",0.0,25.4,59.1,1000.8,276.7,1.1,2.6,330.3,0.20,16.9,23.9,"15:06:08",1
"18/06/14","15:20",0.0,25.1,59.3,1000.8,324.0,1.7,3.9,339.1,0.19,16.6,23.6,"15:16:00",1
"18/06/14","15:30",0.0,24.7,60.2,1000.5,296.0,1.5,3.1,320.5,0.18,16.5,23.6,"15:20:24",1
"18/06/14","15:40",0.0,24.9,60.8,1000.5,305.6,1.5,3.2,305.4,0.17,16.9,23.5,"15:39:52",1
"18/06/14","15:50",0.0,24.6,61.0,1001.0,301.8,1.3,3.9,345.4,0.16,16.6,23.5,"15:42:00",1
"18/06/14","16:00",0.0,24.4,61.5,1000.8,291.4,1.5,3.7,317.7,0.14,16.6,23.5,"15:58:32",1
"18/06/14","16:10",0.0,24.3,63.4,1000.8,304.6,1.6,4.1,330.0,0.13,16.9,23.5,"16:08:32",1
"18/06/14","16:20",0.0,24.0,63.7,1000.8,315.6,1.7,3.7,341.2,0.11,16.7,23.5,"16:15:28",1
"18/06/14","16:30",0.0,23.7,64.4,1000.8,296.2,1.3,2.5,344.0,0.09,16.6,23.3,"16:27:28",1
"18/06/14","16:40",0.0,23.7,64.7,1001.0,291.2,1.3,2.4,332.5,0.09,16.7,23.2,"16:31:36",1
"18/06/14","16:50",0.0,23.9,64.0,1001.2,276.0,1.3,2.5,300.4,0.08,16.7,23.2,"16:43:52",1
"18/06/14","17:00",0.0,23.8,64.9,1001.5,284.4,1.0,2.2,295.0,0.07,16.8,23.0,"16:53:52",1
"18/06/14","17:10",0.0,23.5,65.6,1001.2,292.9,1.3,3.2,307.8,0.06,16.7,23.1,"17:05:52",1
"18/06/14","17:20",0.0,23.2,66.1,1001.2,316.3,1.7,4.1,326.5,0.05,16.6,23.1,"17:19:20",1
"18/06/14","17:30",0.0,23.1,67.2,1001.9,310.7,1.6,3.9,320.4,0.06,16.7,22.9,"17:24:56",1
"18/06/14","17:40",0.0,22.9,67.8,1002.4,305.7,1.5,2.6,322.5,0.05,16.7,22.8,"17:37:28",1
"18/06/14","17:50",0.0,22.7,68.5,1002.2,303.8,1.6,3.9,334.0,0.04,16.6,22.8,"17:46:24",1
"18/06/14","18:00",0.0,22.5,69.4,1002.4,289.4,1.2,2.5,296.7,0.03,16.7,22.7,"17:57:12",1
"18/06/14","18:10",0.0,22.4,70.4,1002.2,316.5,1.8,3.7,321.9,0.02,16.8,22.7,"18:03:04",1
"18/06/14","18:20",0.0,22.1,70.9,1002.4,297.5,1.3,2.5,326.4,0.01,16.6,22.7,"18:10:48",1
"18/06/14","18:30",0.0,21.9,71.7,1002.6,293.1,1.5,3.1,329.6,0.02,16.6,22.4,"18:27:20",1
"18/06/14","18:40",0.0,21.8,72.0,1002.4,310.8,1.6,2.9,329.1,0.00,16.6,22.5,"18:34:24",1
"18/06/14","18:50",0.0,21.6,72.2,1002.6,325.9,2.1,3.5,324.8,0.00,16.4,22.5,"18:44:48",1
"18/06/14","19:00",0.0,21.5,73.0,1002.6,313.4,1.8,4.8,337.0,0.00,16.5,22.3,"18:51:44",1
"18/06/14","19:10",0.0,21.2,73.7,1002.6,314.8,1.7,2.9,341.5,0.00,16.4,22.2,"19:05:44",1
"18/06/14","19:20",0.0,21.1,73.8,1002.6,321.2,2.1,3.3,336.3,0.00,16.3,22.1,"19:17:12",1
"18/06/14","19:30",0.0,20.8,74.2,1002.9,329.7,2.6,4.5,333.6,0.00,16.1,22.0,"19:24:48",1
"18/06/14","19:40",0.0,20.5,74.9,1002.6,332.2,2.3,5.0,334.5,0.00,15.9,22.1,"19:38:16",1
"18/06/14","19:50",0.0,20.3,75.5,1003.1,331.7,2.5,4.0,332.8,0.00,15.9,22.0,"19:40:40",1
"18/06/14","20:00",0.0,20.1,76.3,1003.1,333.0,2.3,3.5,338.9,0.00,15.8,21.7,"19:59:12",1
"18/06/14","20:10",0.0,19.8,76.7,1003.6,332.9,2.5,5.2,343.7,0.00,15.6,21.9,"20:06:32",1
"18/06/14","20:20",0.0,19.6,77.7,1003.1,333.7,2.2,4.1,333.7,0.00,15.6,21.7,"20:13:20",1
"18/06/14","20:30",0.0,19.5,78.6,1003.6,325.8,2.5,3.7,332.7,0.00,15.7,21.8,"20:23:04",1
"18/06/14","20:40",0.0,19.4,78.5,1003.6,329.6,2.5,5.1,323.5,0.00,15.6,21.6,"20:34:56",1
"18/06/14","20:50",0.0,19.3,78.8,1003.1,327.6,2.5,5.2,341.5,0.00,15.6,21.5,"20:40:02",1
"18/06/14","21:00",0.0,19.2,79.1,1003.4,323.0,2.3,4.9,334.1,0.00,15.5,21.4,"20:50:08",1
"18/06/14","21:10",0.0,19.1,79.8,1003.6,328.6,2.1,3.9,329.3,0.00,15.6,21.2,"21:04:24",1
"18/06/14","21:20",0.0,19.0,80.2,1003.6,328.2,2.5,4.5,341.3,0.00,15.6,21.4,"21:19:28",1
"18/06/14","21:30",0.0,18.9,80.6,1003.8,333.0,2.8,4.8,343.2,0.00,15.5,21.3,"21:22:56",1
"18/06/14","21:40",0.0,18.8,80.9,1003.8,331.1,2.2,4.9,336.7,0.00,15.5,21.3,"21:33:44",1
"18/06/14","21:50",0.0,18.7,81.7,1004.1,337.7,2.2,4.1,342.9,0.00,15.5,21.2,"21:47:44",1
"18/06/14","22:00",0.0,18.6,81.9,1004.1,333.5,2.1,4.5,343.6,0.00,15.5,21.1,"21:55:52",1
"18/06/14","22:10",0.0,18.5,82.2,1003.6,335.4,2.0,3.7,333.8,0.00,15.4,20.9,"22:08:16",1
"18/06/14","22:20",0.0,18.5,82.7,1004.1,332.3,2.2,4.0,327.0,0.00,15.5,20.7,"22:18:56",1
"18/06/14","22:30",0.0,18.4,82.7,1004.3,328.5,2.2,3.7,318.0,0.00,15.4,21.1,"22:22:08",1
"18/06/14","22:40",0.0,18.4,82.8,1003.6,332.2,2.0,4.1,329.9,0.00,15.5,20.8,"22:32:24",1
"18/06/14","22:50",0.0,18.3,83.3,1003.6,332.7,2.0,2.9,341.8,0.00,15.5,20.8,"22:41:52",1
"18/06/14","23:00",0.0,18.2,83.6,1003.6,328.9,2.0,4.0,306.9,0.00,15.4,20.7,"22:55:20",1
"18/06/14","23:10",0.0,18.2,83.7,1003.8,330.2,1.8,3.2,335.6,0.00,15.4,20.7,"23:04:40",1
"18/06/14","23:20",0.0,18.2,83.9,1003.6,330.7,2.2,3.7,343.9,0.00,15.5,20.7,"23:18:40",1
"18/06/14","23:30",0.0,18.2,83.8,1003.6,329.9,2.2,3.5,335.1,0.00,15.5,20.7,"23:24:24",1
"18/06/14","23:40",0.0,18.2,83.7,1003.6,327.2,2.3,3.9,313.3,0.00,15.4,20.7,"23:36:40",1
"18/06/14","23:50",0.0,18.2,83.5,1003.6,329.8,2.1,4.4,338.6,0.00,15.4,20.7,"23:48:48",1
"18/06/14","24:00",0.0,18.2,83.5,1003.4,331.9,1.7,3.5,338.3,0.00,15.4,20.6,"23:51:04",1
